Regional Weather Roundup
Issued by NWS

Home | Current Version | Previous Version | Graphics & Text | Print | Product List | Glossary On
Versions: 1 2 3 4 5 6 7 8 9 10 11 12 13 14 15 16 17 18 19 20 21 22 23 24 25 26 27 28 29 30 31 32 33 34 35 36 37 38 39 40 41 42 43 44 45 46 47 48 49 50
000
ASUS43 KLMK 262102
RWRKY
KENTUCKY REGIONAL WEATHER ROUNDUP
NATIONAL WEATHER SERVICE LOUISVILLE KY
400 PM EST MON JAN 26 2015

NOTE "FAIR" INDICATES FEW OR NO CLOUDS BELOW 12,000 FEET
WITH NO SIGNIFICANT WEATHER AND/OR OBSTRUCTIONS TO VISIBILITY.

KYZ001>023-026-027-061>063-070>075-262200-
WESTERN AND SOUTH CENTRAL KENTUCKY

CITY           SKY/WX    TMP DP  RH WIND       PRES   REMARKS
PADUCAH        CLOUDY    36  27  69 W8        29.96R WCI  30
HENDERSON      CLOUDY    32  23  69 W12       29.98R WCI  23
OWENSBORO      MIX PCPN  31  26  81 NW9       29.98R WCI  23
HOPKINSVILLE   PTSUNNY   37  26  66 W8        29.95R WCI  30
BOWLING GREEN  CLOUDY    33  26  75 NW6       29.96R WCI  28
GLASGOW        NOT AVBL
$$

KYZ024-025-028>034-038-045-046-053-262200-
NORTH CENTRAL KENTUCKY

CITY           SKY/WX    TMP DP  RH WIND       PRES   REMARKS
LOUISVILLE/SDF CLOUDY    32  23  69 W10       29.93R WCI  24
LOUISVILLE/LOU CLOUDY    32  22  66 NW9       29.93R WCI  24
FORT KNOX      CLOUDY    31  24  77 W10       29.91R WCI  22
$$

KYZ035>037-039>044-047>052-055>060-089>105-262200-
NORTHEAST KENTUCKY

CITY           SKY/WX    TMP DP  RH WIND       PRES   REMARKS
LEXINGTON      CLOUDY    28  21  75 NW8       29.89S WCI  20
COVINGTON      MOSUNNY   30  19  63 NW10      29.88R WCI  21
FRANKFORT      CLOUDY    29  20  69 NW9       29.89S WCI  20
$$

KYZ054-064>069-076>088-106>120-262200-
SOUTHEAST KENTUCKY

CITY           SKY/WX    TMP DP  RH WIND       PRES   REMARKS
JACKSON        CLOUDY    25  21  85 W3        29.84R
LONDON         CLOUDY    30  22  72 W7        29.87S WCI  23
SOMERSET       NOT AVBL
MIDDLESBORO    NOT AVBL
MONTICELLO     CLOUDY    31  27  85 W7        29.94S WCI  24
$$




USA.gov is the U.S. government's official web portal to all federal, state and local government web resources and services.